Torna al catalogo

CZ-4 DEB

AttivoPO
NORAD 26122·DEBRIS·🇨🇳 China

Lanciato Oct 14, 1999 da Taiyuan Satellite Launch Center

Loading…

Prossimi Passaggi (prossime 24 ore)

TLE

AggiornatoSource: Space-Track

Epoca: Sep 14, 2026, 14:46 UTC

1 26122U 99057J   26257.61577502  .00001742  00000-0  13552-2 0  9990
2 26122  98.9456  11.8886 0525224 193.1411 181.8756 13.43347432291998

Traccia CZ-4 DEB in tempo reale con AllMySat

Download on the App Store